Inquirer Daily News

Weather

Get conditions and forecasts for any City, State, ZIP code or Country:  
Northeast Philadelphia, PA
on Monday, January 28, 2013

Monday
Previous Day Next Day
Daily Summary
 ActualAverage (KTTN)Record (KTTN)
Temperature
Mean Temperature °F 31°F  
Max Temperature 37°F 39°F 64°F (1916)
Min Temperature 24°F 24°F -2°F (1935)
Degree Days
Heating Degree Days 34 34  
Month to date heating degree days 951  
Since 1 July heating degree days 2846  
Cooling Degree Days 0 0  
Month to date cooling degree days 0  
Year to date cooling degree days 0  
Moisture
Dew Point 29°F   
Average Humidity 87    
Maximum Humidity 100    
Minimum Humidity 69    
Precipitation
Precipitation 0.51 in 0.11 in 2.20 in (1994)
Month to date precipitation 2.88  
Year to date precipitation 2.88  
Wind
Wind Speed 4 mph   
Max Wind Speed 10 mph   
Max Gust Speed mph   
Visibility 4 miles   
Events Rain , Snow   

Key: T is trace of precipitation, MM is missing value
Source: NWS Daily Summary
Time(EST)TemperatureDew PointHumidity Pressure Visibility Wind DirectionWind SpeedGust SpeedPrecipitationEvents Conditions
12:54 AM 24.1°F 16.0°F 71% 30.53 in 9.0 miles Calm Calm - 0.03 in   Clear
1:54 AM 25.0°F 17.1°F 72% 30.50 in 9.0 miles Calm Calm - N/A   Partly Cloudy
2:54 AM 26.1°F 18.0°F 71% 30.48 in 8.0 miles Calm Calm - 0.06 in   Clear
3:54 AM 27.0°F 19.0°F 72% 30.46 in 8.0 miles Calm Calm - 0.02 in   Overcast
4:54 AM 26.1°F 19.0°F 75% 30.45 in 8.0 miles Calm Calm - 0.02 in   Overcast
5:54 AM 28.9°F 19.9°F 69% 30.43 in 8.0 miles SSW 4.6 mph - 0.03 in   Overcast
6:54 AM 28.4°F 21.2°F 74% 30.43 in 7.0 miles South 3.5 mph - N/A   Overcast
7:54 AM 30.0°F 23.0°F 75% 30.43 in 4.0 miles South 4.6 mph - 0.01 in   Haze
8:08 AM 30.2°F 24.8°F 80% 30.43 in 2.0 miles SSW 6.9 mph - 0.00 in Snow Light Snow
8:18 AM 30.2°F 24.8°F 80% 30.43 in 1.8 miles SSW 8.1 mph - 0.00 in Snow Light Snow
8:41 AM 30.2°F 26.6°F 86% 30.42 in 2.0 miles SSW 3.5 mph - 0.00 in Snow Light Snow
8:46 AM 30.2°F 26.6°F 86% 30.42 in 1.8 miles SSW 6.9 mph - 0.01 in Snow Light Snow
8:54 AM 30.0°F 27.0°F 88% 30.42 in 1.2 miles SSW 8.1 mph - 0.01 in Snow Light Snow
9:17 AM 30.2°F 28.4°F 93% 30.40 in 0.8 miles South 4.6 mph - 0.01 in Snow Light Snow
9:47 AM 30.2°F 28.4°F 93% 30.38 in 1.2 miles Variable 3.5 mph - 0.03 in Snow Light Snow
9:54 AM 30.9°F 28.9°F 92% 30.38 in 1.5 miles Variable 3.5 mph - 0.03 in   Overcast
10:09 AM 30.2°F 28.4°F 93% 30.38 in 2.0 miles SSW 6.9 mph - 0.00 in   Overcast
10:25 AM 32.0°F 28.4°F 87% 30.37 in 3.0 miles SSW 5.8 mph - 0.00 in   Overcast
10:46 AM 33.8°F 28.4°F 81% 30.36 in 3.0 miles SSW 6.9 mph - 0.02 in   Overcast
10:54 AM 33.1°F 28.9°F 85% 30.36 in 4.0 miles South 4.6 mph - 0.02 in   Overcast
11:14 AM 33.8°F 28.4°F 81% 30.34 in 4.0 miles SSW 5.8 mph - N/A   Overcast
11:47 AM 33.8°F 30.2°F 87% 30.30 in 4.0 miles Variable 5.8 mph - N/A Rain Light Rain
11:54 AM 33.8°F 30.2°F 87% 30.29 in 4.0 miles SSW 6.9 mph - N/A   Overcast
12:54 PM 34.0°F 30.0°F 85% 30.23 in 3.0 miles SSW 6.9 mph - 0.04 in Rain Rain
1:02 PM 33.8°F 30.2°F 87% 30.22 in 2.5 miles SSW 10.4 mph - 0.01 in Rain Light Rain
1:31 PM 33.8°F 30.2°F 87% 30.19 in 2.5 miles SSW 6.9 mph - 0.04 in Rain Light Rain
1:54 PM 34.0°F 32.0°F 92% 30.19 in 2.5 miles SW 8.1 mph - 0.08 in Rain Light Rain
2:02 PM 33.8°F 30.2°F 87% 30.18 in 3.0 miles SW 8.1 mph - 0.02 in Rain Light Rain
2:29 PM 33.8°F 32.0°F 93% 30.16 in 2.5 miles SW 8.1 mph - 0.04 in Rain Light Rain
2:54 PM 34.0°F 32.0°F 92% 30.17 in 2.5 miles SW 6.9 mph - 0.04 in Rain Light Rain
3:13 PM 33.8°F 32.0°F 93% 30.14 in 1.8 miles SW 9.2 mph - 0.02 in Rain Light Rain
3:43 PM 33.8°F 33.8°F 100% 30.13 in 2.0 miles SW 5.8 mph - 0.07 in Rain Light Rain
3:54 PM 34.0°F 33.1°F 96% 30.14 in 2.0 miles SW 5.8 mph - 0.07 in Rain Light Rain
4:25 PM 35.6°F 33.8°F 93% 30.12 in 3.0 miles SW 6.9 mph - 0.02 in Rain Light Rain
4:54 PM 35.1°F 33.1°F 92% 30.12 in 3.0 miles WSW 8.1 mph - 0.02 in Rain Light Rain
5:54 PM 35.1°F 33.1°F 92% 30.10 in 3.0 miles WSW 6.9 mph - 0.01 in   Overcast
6:54 PM 35.1°F 33.1°F 92% 30.09 in 4.0 miles WSW 8.1 mph - 0.02 in   Overcast
7:54 PM 35.1°F 34.0°F 96% 30.10 in 3.0 miles WSW 5.8 mph - 0.00 in   Overcast
8:49 PM 35.6°F 33.8°F 93% 30.07 in 3.0 miles WSW 6.9 mph - N/A   Overcast
8:54 PM 36.0°F 34.0°F 93% 30.07 in 3.0 miles WSW 5.8 mph - N/A   Overcast
9:54 PM 36.0°F 35.1°F 97% 30.07 in 3.0 miles WSW 5.8 mph - N/A   Overcast
10:04 PM 35.6°F 35.6°F 100% 30.06 in 2.5 miles SW 5.8 mph - N/A   Overcast
10:11 PM 37.4°F 35.6°F 93% 30.05 in 3.0 miles SW 4.6 mph - N/A   Overcast
10:54 PM 37.0°F 35.1°F 93% 30.06 in 3.0 miles WSW 4.6 mph - N/A   Overcast
11:54 PM 36.0°F 34.0°F 93% 30.06 in 3.0 miles WSW 5.8 mph - N/A   Mostly Cloudy
Astronomy
Sunrise:07:12 AM (EST) Moon Rise:07:06 PM (EST)1/28
Sunset:05:14 PM (EST) Moon Set:07:36 AM (EST)1/28
Moon Phase
Jan. 28 Feb. 03 Feb. 10 Feb. 17 Feb. 25

Copyright © 2014 The Weather Underground, Inc.